Location: *
(34.6903°N, 135.5184°E)
Time: 15:51:12
(UTC+00:00)

Sakura Rocket - Pass Details

Date: 22 September 2019
Orbit: 476 x 1744 km, 28.7° (Epoch: 18 October)

Event Time Altitude Azimuth Distance (km) Brightness Sun altitude
Exits shadow 19:21:09 29° 211° (SSW) 1,079 3.9 -18.1°
Maximum altitude 19:22:03 32° 186° (S) 1,044 4.0 -17.9°
Drops below altitude 10° 19:26:29 10° 124° (SE) 2,209 6.5 -17.1°
Sets 19:29:31 0° 115° (ESE) 3,351 7.7 -16.4°
